Flag for Romania Weather past 2 weeks in Târgu Mureş, Romania

50 °F


Feels Like: 50 °F
Forecast: 41 / 55 °F
Wind: No wind

Location: Tirgu Mures Airport

Current Time: Oct 7, 2015 at 8:27:21 AM

Latest Report: Oct 7, 2015 at 8:00 AM

Visibility: 0 mi

Pressure: 29.92 "Hg

Humidity: 100%

Dew point: 50 °F

Location of Târgu MureşLocation

Historic Weather in Târgu Mureş — Graph


Târgu Mureş temperature yesterday

Maximum temperature yesterday: 63 °F (at 3:00 PM)
Minimum temperature yesterday: 48 °F (at 11:00 PM)
Average temperature yesterday: 57 °F

Past Weeks' High & Low Weather Summary

High79 °F (Sep 23, 3:30 PM)100% (Sep 22, 8:00 AM)30.48 "Hg (Sep 22, 8:00 AM)
Low36 °F (Oct 1, 5:30 AM)36% (Oct 3, 4:00 PM)29.86 "Hg (Sep 23, 2:30 PM)
Average58 °F83%30.13 "Hg
* Reported Sep 22 8:00 AM — Oct 7 7:30 AM, Târgu Mureş, Weather by CustomWeather, © 2015

Note: Actual official high and low records may vary slightly from our data, if they occured in-between our weather recording intervals... More about our weather records


Târgu Mureş weather history for previous 24 hours

Time TempWeatherWind HumidityBarometerVisibility
7:30 AM
Wed, Oct 7
50 °FFog.No wind100%29.92 "Hg1 mi
7:00 AM50 °FFog.No wind100%29.92 "Hg1 mi
6:30 AM50 °FFog.No wind94%29.92 "Hg1 mi
5:30 AM48 °FFog.No wind100%29.92 "Hg0 mi
5:00 AM48 °FFog.No wind100%29.92 "Hg1 mi
4:00 AM48 °FFog.No wind94%29.92 "Hg0 mi
3:00 AM45 °FFog.No wind100%29.92 "Hg0 mi
2:00 AM45 °FLight fog.No wind100%29.92 "Hg1 mi
1:00 AM45 °FFog.No wind100%29.92 "Hg3 mi
12:00 AM46 °FClear.No wind100%29.92 "Hg4 mi
11:00 PM
Tue, Oct 6
48 °FClear.No wind94%29.92 "Hg4 mi
10:00 PM50 °FClear.No wind94%29.92 "Hg10 mi
9:00 PM50 °FClear.No wind94%29.92 "Hg10 mi
8:30 PM52 °FClear.No wind88%29.92 "Hg10 mi
8:00 PM54 °FPassing clouds.3 mph88%29.92 "HgN/A
7:30 PM55 °FSunny.1 mph88%29.92 "Hg10 mi
7:00 PM57 °FPassing clouds.3 mph82%29.89 "HgN/A
6:30 PM59 °FPassing clouds.3 mph82%29.89 "HgN/A
6:00 PM63 °FPassing clouds.5 mph73%29.89 "HgN/A
5:30 PM63 °FScattered clouds.3 mph73%29.89 "HgN/A
5:00 PM63 °FPartly sunny.2 mph73%29.89 "HgN/A
4:30 PM63 °FPartly sunny.3 mph68%29.92 "HgN/A
4:00 PM63 °FPartly sunny.3 mph73%29.92 "HgN/A
3:30 PM63 °FPartly sunny.3 mph73%29.92 "HgN/A
3:00 PM63 °FMore clouds than sun.1 mph73%29.92 "HgN/A
2:30 PM61 °FMore clouds than sun.No wind77%29.92 "HgN/A
2:00 PM61 °FMore clouds than sun.1 mph77%29.95 "HgN/A
1:30 PM59 °FBroken clouds.3 mph82%29.95 "HgN/A
1:00 PM59 °FBroken clouds.5 mph82%29.95 "HgN/A
12:30 PM57 °FBroken clouds.6 mph94%29.95 "HgN/A
12:00 PM57 °FBroken clouds.3 mph88%29.95 "HgN/A
11:30 AM57 °FPartly sunny.1 mph88%29.95 "HgN/A
11:00 AM57 °FBroken clouds.3 mph88%29.95 "HgN/A
10:30 AM55 °FMore clouds than sun.3 mph94%29.95 "Hg4 mi
10:00 AM55 °FLow clouds.6 mph94%29.95 "Hg4 mi
9:30 AM55 °FLow clouds.5 mph94%29.95 "Hg4 mi
9:00 AM55 °FFog.5 mph94%29.95 "Hg3 mi
8:30 AM55 °FFog.2 mph94%29.95 "Hg2 mi
8:00 AM54 °FFog.6 mph100%29.95 "Hg2 mi
Weather by CustomWeather, © 2015

See weather overviewHow to use our weather pages